Time,TemperatureF,DewpointF,PressureIn,WindDirection,WindDirectionDegrees,WindSpeedMPH,WindSpeedGustMPH,Humidity,HourlyPrecipIn,Conditions,Clouds,dailyrainin,SoftwareType,DateUTC
2013-03-31 00:33:00,44.0,-99.9,30.16,North,-999,-999.0,7.0,-999,-99.99,,,-99.99,,2013-03-31 04:33:00,
2013-03-31 00:43:00,44.0,-99.9,30.16,North,-999,-999.0,7.0,-999,-99.99,,,-99.99,,2013-03-31 04:43:00,
2013-03-31 00:52:00,44.0,-99.9,30.15,North,-999,-999.0,6.0,-999,-99.99,,,-99.99,,2013-03-31 04:52:00,
2013-03-31 01:22:00,44.0,-99.9,30.15,North,-999,-999.0,6.0,-999,-99.99,,,-99.99,,2013-03-31 05:22:00,
2013-03-31 01:32:00,44.0,-99.9,30.15,North,-999,-999.0,6.0,-999,-99.99,,,-99.99,,2013-03-31 05:32:00,
2013-03-31 01:42:00,44.0,-99.9,30.15,North,-999,-999.0,6.0,-999,-99.99,,,-99.99,,2013-03-31 05:42:00,
2013-03-31 01:52:00,44.0,-99.9,30.14,North,-999,-999.0,-999.0,-999,-99.99,,,-99.99,,2013-03-31 05:52:00,
2013-03-31 02:23:00,44.0,-99.9,30.14,North,-999,-999.0,-999.0,-999,-99.99,,,-99.99,,2013-03-31 06:23:00,
2013-03-31 02:33:00,44.0,-99.9,30.14,North,-999,-999.0,-999.0,-999,-99.99,,,-99.99,,2013-03-31 06:33:00,
2013-03-31 02:42:00,44.0,-99.9,30.14,North,-999,-999.0,-999.0,-999,-99.99,,,-99.99,,2013-03-31 06:42:00,
2013-03-31 02:52:00,44.0,-99.9,30.13,North,-999,-999.0,-999.0,-999,-99.99,,,-99.99,,2013-03-31 06:52:00,
2013-03-31 03:33:00,44.0,-99.9,30.13,North,-999,-999.0,-999.0,-999,-99.99,,,-99.99,,2013-03-31 07:33:00,
2013-03-31 03:43:00,44.0,-99.9,30.13,North,-999,-999.0,-999.0,-999,-99.99,,,-99.99,,2013-03-31 07:43:00,
2013-03-31 03:52:00,43.0,-99.9,30.12,North,-999,-999.0,5.0,-999,-99.99,,,-99.99,,2013-03-31 07:52:00,
2013-03-31 04:22:00,43.0,-99.9,30.12,North,-999,-999.0,5.0,-999,-99.99,,,-99.99,,2013-03-31 08:22:00,
2013-03-31 04:33:00,43.0,-99.9,30.12,North,-999,-999.0,5.0,-999,-99.99,,,-99.99,,2013-03-31 08:33:00,
2013-03-31 04:42:00,43.0,-99.9,30.12,North,-999,-999.0,5.0,-999,-99.99,,,-99.99,,2013-03-31 08:42:00,
2013-03-31 05:52:00,42.0,-99.9,30.09,North,-999,-999.0,9.0,-999,-99.99,,,-99.99,,2013-03-31 09:52:00,
2013-03-31 06:33:00,42.0,-99.9,30.09,North,-999,-999.0,9.0,-999,-99.99,,,-99.99,,2013-03-31 10:33:00,
2013-03-31 06:42:00,42.0,-99.9,30.09,North,-999,-999.0,9.0,-999,-99.99,,,-99.99,,2013-03-31 10:42:00,
2013-03-31 08:52:00,47.0,-99.9,30.07,North,-999,-999.0,-999.0,-999,-99.99,,,-99.99,,2013-03-31 12:52:00,
2013-03-31 09:23:00,47.0,-99.9,30.07,North,-999,-999.0,-999.0,-999,-99.99,,,-99.99,,2013-03-31 13:23:00,
2013-03-31 09:33:00,47.0,-99.9,30.07,North,-999,-999.0,-999.0,-999,-99.99,,,-99.99,,2013-03-31 13:33:00,
2013-03-31 09:42:00,47.0,-99.9,30.07,North,-999,-999.0,-999.0,-999,-99.99,,,-99.99,,2013-03-31 13:42:00,
2013-03-31 09:52:00,49.0,-99.9,30.06,North,-999,-999.0,10.0,-999,-99.99,,,-99.99,,2013-03-31 13:52:00,
2013-03-31 10:23:00,49.0,-99.9,30.06,North,-999,-999.0,10.0,-999,-99.99,,,-99.99,,2013-03-31 14:23:00,
2013-03-31 10:33:00,49.0,-99.9,30.06,North,-999,-999.0,10.0,-999,-99.99,,,-99.99,,2013-03-31 14:33:00,
2013-03-31 10:43:00,49.0,-99.9,30.06,North,-999,-999.0,10.0,-999,-99.99,,,-99.99,,2013-03-31 14:43:00,
2013-03-31 10:52:00,51.0,-99.9,30.03,North,-999,-999.0,14.0,-999,-99.99,,,-99.99,,2013-03-31 14:52:00,
2013-03-31 11:34:00,51.0,-99.9,30.03,North,-999,-999.0,14.0,-999,-99.99,,,-99.99,,2013-03-31 15:34:00,
2013-03-31 11:44:00,51.0,-99.9,30.03,North,-999,-999.0,14.0,-999,-99.99,,,-99.99,,2013-03-31 15:44:00,
2013-03-31 11:52:00,51.0,-99.9,30.00,North,-999,-999.0,16.0,-999,-99.99,,,-99.99,,2013-03-31 15:52:00,
2013-03-31 12:23:00,51.0,-99.9,30.00,North,-999,-999.0,16.0,-999,-99.99,,,-99.99,,2013-03-31 16:23:00,
2013-03-31 12:34:00,51.0,-99.9,30.00,North,-999,-999.0,16.0,-999,-99.99,,,-99.99,,2013-03-31 16:34:00,
2013-03-31 12:43:00,51.0,-99.9,30.00,North,-999,-999.0,16.0,-999,-99.99,,,-99.99,,2013-03-31 16:43:00,
2013-03-31 12:52:00,52.0,-99.9,29.96,North,-999,-999.0,18.0,-999,-99.99,,,-99.99,,2013-03-31 16:52:00,
2013-03-31 13:23:00,52.0,-99.9,29.96,North,-999,-999.0,18.0,-999,-99.99,,,-99.99,,2013-03-31 17:23:00,
2013-03-31 13:33:00,52.0,-99.9,29.96,North,-999,-999.0,18.0,-999,-99.99,,,-99.99,,2013-03-31 17:33:00,
2013-03-31 13:43:00,52.0,-99.9,29.96,North,-999,-999.0,18.0,-999,-99.99,,,-99.99,,2013-03-31 17:43:00,
2013-03-31 14:52:00,48.0,-99.9,29.88,North,-999,-999.0,8.0,-999,-99.99,,,-99.99,,2013-03-31 18:52:00,
2013-03-31 15:33:00,48.0,-99.9,29.88,North,-999,-999.0,8.0,-999,-99.99,,,-99.99,,2013-03-31 19:33:00,
2013-03-31 15:43:00,48.0,-99.9,29.88,North,-999,-999.0,8.0,-999,-99.99,,,-99.99,,2013-03-31 19:43:00,
2013-03-31 15:52:00,48.0,-99.9,29.83,North,-999,-999.0,-999.0,-999,-99.99,,,-99.99,,2013-03-31 19:52:00,
2013-03-31 16:23:00,48.0,-99.9,29.83,North,-999,-999.0,-999.0,-999,-99.99,,,-99.99,,2013-03-31 20:23:00,
2013-03-31 16:34:00,48.0,-99.9,29.83,North,-999,-999.0,-999.0,-999,-99.99,,,-99.99,,2013-03-31 20:34:00,
2013-03-31 16:43:00,48.0,-99.9,29.83,North,-999,-999.0,-999.0,-999,-99.99,,,-99.99,,2013-03-31 20:43:00,
2013-03-31 16:52:00,48.0,-99.9,29.79,North,-999,-999.0,-999.0,-999,-99.99,,,-99.99,,2013-03-31 20:52:00,
2013-03-31 17:23:00,48.0,-99.9,29.79,North,-999,-999.0,-999.0,-999,-99.99,,,-99.99,,2013-03-31 21:23:00,
2013-03-31 17:34:00,48.0,-99.9,29.79,North,-999,-999.0,-999.0,-999,-99.99,,,-99.99,,2013-03-31 21:34:00,
2013-03-31 17:44:00,48.0,-99.9,29.79,North,-999,-999.0,-999.0,-999,-99.99,,,-99.99,,2013-03-31 21:44:00,
2013-03-31 18:52:00,49.0,-99.9,29.74,North,-999,-999.0,10.0,-999,-99.99,,,-99.99,,2013-03-31 22:52:00,
2013-03-31 19:22:00,49.0,-99.9,29.74,North,-999,-999.0,10.0,-999,-99.99,,,-99.99,,2013-03-31 23:22:00,
2013-03-31 19:33:00,49.0,-99.9,29.74,North,-999,-999.0,10.0,-999,-99.99,,,-99.99,,2013-03-31 23:33:00,
2013-03-31 19:43:00,49.0,-99.9,29.74,North,-999,-999.0,10.0,-999,-99.99,,,-99.99,,2013-03-31 23:43:00,
2013-03-31 20:52:00,50.0,-99.9,29.74,North,-999,-999.0,10.0,-999,-99.99,,,-99.99,,2013-04-01 00:52:00,
2013-03-31 21:33:00,50.0,-99.9,29.74,North,-999,-999.0,10.0,-999,-99.99,,,-99.99,,2013-04-01 01:33:00,
2013-03-31 21:43:00,50.0,-99.9,29.74,North,-999,-999.0,10.0,-999,-99.99,,,-99.99,,2013-04-01 01:43:00,
2013-03-31 21:52:00,50.0,-99.9,29.75,North,-999,-999.0,9.0,-999,-99.99,,,-99.99,,2013-04-01 01:52:00,
2013-03-31 22:23:00,50.0,-99.9,29.75,North,-999,-999.0,9.0,-999,-99.99,,,-99.99,,2013-04-01 02:23:00,
2013-03-31 22:33:00,50.0,-99.9,29.75,North,-999,-999.0,9.0,-999,-99.99,,,-99.99,,2013-04-01 02:33:00,
2013-03-31 22:43:00,50.0,-99.9,29.75,North,-999,-999.0,9.0,-999,-99.99,,,-99.99,,2013-04-01 02:43:00,